Location: Yucca Valley
(34.1140°N, 116.4310°W)
Time: 23:48:09
(UTC-07:00)

Daily predictions for brighter satellites

Satellite Brightness Start Highest point End
(mag) Time Altitude Azimuth Time Altitude Azimuth Time Altitude Azimuth
Tiangong 2 1.5 20:12:44 10° NW 20:15:55 55° NNE 20:19:04 10° ESE
Cosmos 2344 4.3 20:11:42 10° SSE 20:18:10 29° ESE 20:24:42 10° NE
Cosmos 2369 Rocket 2.2 20:17:02 10° S 20:22:36 65° ESE 20:28:13 10° NNE
Shenzhou-11 Module 2.0 20:20:41 10° WNW 20:23:45 88° NNE 20:26:47 10° ESE
Cosmos 1470 Rocket 4.4 20:19:29 10° SSW 20:23:53 56° W 20:28:17 10° N
Cosmos 1816 Rocket 4.5 20:17:52 10° S 20:24:02 80° E 20:30:11 10° N
GPS 2-04 Rocket1 2.7 20:21:57 10° W 20:25:48 70° N 20:29:28 10° E
Helios 1B rocket 3.4 20:23:29 10° NE 20:27:00 27° E 20:30:30 10° SSE
Cosmos 1703 Rocket 4.4 20:24:14 10° NNE 20:28:11 32° E 20:32:03 10° SE
Resurs 1-3 3.6 20:25:10 10° SSE 20:29:33 89° ENE 20:33:57 10° NNW
Timation 2 Rocket 4.5 20:25:19 10° NNW 20:31:41 66° WSW 20:38:16 10° S
Cosmos 2084 4.1 20:28:41 10° NNW 20:32:15 35° NE 20:35:33 12° ESE
Lacrosse 4 Rocket 3.7 20:31:11 10° NNE 20:33:13 13° NE 20:35:14 10° E
Aureole 1 4.1 20:30:35 10° SSW 20:33:33 86° ESE 20:36:53 10° NNE
DNEPR-1 R/B 3.9 20:30:19 10° SSW 20:35:51 64° ESE 20:40:31 10° NE
Meteor 2-10 Rocket 4.4 20:30:24 10° NNW 20:36:09 62° W 20:41:47 10° S
Spot 2 Rocket 3.6 20:33:07 10° S 20:38:12 81° WSW 20:43:21 10° NNW
Aureole 3 3.6 20:35:54 10° SSE 20:38:33 27° E 20:41:07 10° NNE
ATLAS 5 CENTAUR R/B 3.7 20:36:17 10° N 20:41:22 27° NE 20:46:13 12° ESE
Cosmos 1408 3.7 20:38:24 10° SSE 20:41:28 27° E 20:44:38 10° NNE
Cosmos 1869 Rocket 3.7 20:38:43 10° SSE 20:42:54 50° E 20:47:07 10° NNE
Delta 168 4.2 20:43:49 10° SW 20:46:18 19° S 20:48:07 14° SSE
ORS 1 (USA 231) 4.3 20:43:37 10° WSW 20:46:38 76° SSE 20:49:38 10° ENE
Cosmos 1346 Rocket 2.8 20:43:22 10° N 20:47:22 87° W 20:51:24 10° S
Lacrosse 5 rocket 3.3 20:44:32 10° WSW 20:47:39 27° NW 20:50:48 10° NNE
SL-19 R/B 4.4 20:49:43 10° SSE 20:55:23 73° ENE 21:01:31 10° N
COSMOS 2455 3.9 20:53:07 10° SW 20:58:53 48° WNW 21:04:43 10° NNE
Cosmos 372 Rocket 3.9 20:56:50 10° S 21:01:55 67° ESE 21:06:59 10° NNE
Cosmos 1939 Rocket 2.9 20:58:31 11° S 21:02:31 86° WSW 21:06:40 10° NNW
CENTAUR R/B 2.6 20:57:27 10° SW 21:03:17 77° WNW 21:09:57 10° NNE
Helios 1A 2.9 21:01:58 17° SSE 21:05:09 73° ENE 21:09:22 10° N
Envisat 3.4 21:00:23 10° S 21:05:24 63° W 21:10:26 10° NNW
Cosmos 1825 2.2 21:02:49 15° S 21:05:47 55° E 21:09:29 10° NNE
Cosmos 2221 Rocket 3.5 21:07:56 10° N 21:12:23 74° E 21:15:21 21° SSE
USA 186 4.3 21:12:00 10° SW 21:13:47 16° W 21:15:41 10° NW
Meteor 1-10 Rocket 4.4 21:08:27 10° N 21:14:21 63° E 21:18:17 21° SSE
Cosmos 468 4.4 21:09:17 10° NNW 21:14:32 74° ENE 21:17:47 23° SSE
Meteor 2-6 Rocket 4.5 21:09:23 10° N 21:15:17 59° E 21:19:02 23° SSE
Cosmos 1125 Rocket 4.0 21:17:13 10° SSW 21:22:24 62° WNW 21:27:35 10° N
MetOp-A 4.4 21:21:44 28° SE 21:24:13 50° ENE 21:29:23 10° N
Cosmos 1269 Rocket 4.1 21:20:50 10° N 21:26:03 59° ENE 21:28:18 33° SE
Cosmos 1782 2.7 21:24:48 10° N 21:28:47 84° W 21:30:32 33° S
deb Kosmos-1763 4.0 21:29:34 10° NNW 21:33:20 76° ENE 21:34:03 55° SE
Cosmos 1943 Rocket 3.1 21:31:16 10° SW 21:36:41 50° WNW 21:42:05 10° N
Milstar 3 3.6 21:24:01 10° WSW 21:36:45 57° S 21:41:17 27° ESE
SAR-Lupe-4 3.7 21:36:04 44° S 21:37:04 71° WSW 21:40:38 10° NNW
Resurs 01 Rocket 4.5 21:39:01 10° WSW 21:40:40 12° W 21:42:20 10° WNW
Nadezhda 4 Rocket 4.0 21:38:05 30° SSE 21:41:09 59° E 21:47:12 10° NNE
Cosmos 1092 Rocket 4.4 21:41:06 35° ESE 21:42:30 40° E 21:48:11 10° NNE
Cosmos 1340 2.5 21:39:49 10° N 21:43:37 90° ESE 21:44:07 66° S
Okean 1-7 4.0 21:39:53 10° NNW 21:44:05 45° W 21:46:45 20° SSW
Cosmos 158 Rocket 3.9 21:40:48 10° NNW 21:45:40 76° WSW 21:47:24 40° S
CZ-4B DEB 4.0 21:45:27 29° WSW 21:45:53 31° W 21:48:31 10° NNW
Cosmos 1862 3.3 21:45:15 41° SSW 21:46:32 77° W 21:50:30 10° N
OAO 3 Copernicus 4.3 21:42:58 10° W 21:48:01 81° N 21:50:00 37° E
YAOGAN 6 4.4 21:46:13 17° SW 21:48:16 28° W 21:51:29 10° NW
Tiangong 2 3.4 21:50:16 10° W 21:51:52 17° WSW 21:51:52 17° WSW
NOAA 11 4.4 21:53:21 32° S 21:55:55 67° WSW 22:01:24 10° NNW
Delta 7925 Rocket 4.3 21:51:31 10° WSW 21:55:05 33° SSW 21:55:05 33° SSW
Terra 3.3 21:59:48 23° ENE 21:59:48 23° ENE 22:03:09 10° NNE
Cosmos 1867 4.3 21:55:55 10° NNW 22:01:00 38° NE 22:01:48 36° ENE
H-2A R/B 2.2 22:01:15 53° ESE 22:02:05 59° ENE 22:07:18 10° N
GPS 2-04 Rocket1 3.7 22:01:53 10° W 22:04:20 36° WSW 22:04:20 36° WSW
ERS-1 Rocket 3.6 22:03:44 33° SSW 22:05:40 51° W 22:10:34 10° NNW
Cosmos 1606 4.4 22:02:28 10° NNW 22:05:43 27° W 22:06:53 23° WSW
Intercosmos 25 Rocket 3.7 22:02:42 10° N 22:08:45 71° E 22:08:50 71° E
BREEZE-M DEB (TANK) 4.1 22:13:27 32° ENE 22:13:27 32° ENE 22:18:39 10° NE
Cosmos 1733 Rocket 3.6 22:10:28 42° SW 22:11:29 53° W 22:15:43 10° N
Lacrosse 4 Rocket 1.8 22:07:56 10° NNW 22:12:19 58° WSW 22:12:26 58° WSW
ATLAS CENTAUR R/B 2.2 22:17:27 44° N 22:17:27 44° N 22:20:14 10° NNE
SPOT 5 3.4 22:24:48 54° SW 22:25:40 62° W 22:30:56 10° NNW
ATLAS 5 CENTAUR R/B 2.9 22:20:19 10° NW 22:26:21 53° WSW 22:27:46 45° SSW
Nimbus 7 Rocket 4.5 22:22:42 10° N 22:28:34 73° WNW 22:30:29 44° SW
USA 215 3.3 22:28:10 55° ESE 22:29:37 71° NE 22:36:08 10° NW
Cosmos 2297 Rocket 4.2 22:26:49 10° NNE 22:29:50 14° NE 22:30:09 14° ENE
Cosmos 2195 Rocket 4.4 22:30:00 68° ESE 22:30:26 71° E 22:36:44 10° N
Sich 1 Rocket 4.3 22:33:32 50° N 22:33:32 50° N 22:36:49 10° N
ARGOS 4.0 22:33:10 38° SW 22:34:17 43° W 22:39:22 10° NNW
Meteor 2-20 Rocket 4.5 22:40:52 61° SW 22:41:52 74° W 22:48:00 10° N
Cosmos 1655 Rocket 4.0 22:55:58 68° NE 22:55:58 68° NE 23:01:34 10° N
Cosmos 2251 Rocket 3.9 22:51:03 10° NNW 22:55:26 58° NW 22:55:26 58° NW
Cosmos 2026 Rocket 3.9 22:59:37 77° W 22:59:39 77° W 23:05:55 10° N
H-2A R/B 3.9 23:04:49 25° N 23:04:49 25° N 23:06:40 10° N
Meteor 1-20 Rocket 4.5 23:04:54 66° N 23:04:54 66° N 23:09:47 10° N
Cosmos 2227 Rocket 3.2 23:14:49 10° N 23:18:54 39° NNE 23:18:54 39° NNE
Cosmos 2219 4.3 23:23:39 10° NW 23:27:54 39° WNW 23:27:54 39° WNW
S3M 4.3 23:24:06 10° N 23:29:00 59° N 23:29:00 59° N
Terra 3.8 23:38:41 23° WNW 23:38:41 23° WNW 23:41:07 10° NW
Cosmos 1980 Rocket 4.4 23:43:37 16° NE 23:43:37 16° NE 23:44:47 10° NE
H-2A R/B 4.4 23:41:54 14° W 23:41:54 14° W 23:44:34 10° WNW
